When you browse on this site, cookies collect data to enhance your experience and personalize the content and advertising you see.
Visit our Privacy Policy to learn more. By continuing to use the site, you agree to this use of cookies and data.

Hourly Weather Kraslava

Today, 5 July, Sunday

Time Temperature Precipitation Wind Pressure Humidity
00:00 +16°C° 0 mm 2 mps 748 mmHg 82%
01:00 +16°C° 0 mm 2 mps 748 mmHg 82%
02:00 +16°C° 0 mm 3 mps 748 mmHg 79%
03:00 +16°C° 0 mm 3 mps 748 mmHg 80%
04:00 +16°C° 0 mm 3 mps 747 mmHg 82%
05:00 +16°C° 0 mm 3 mps 747 mmHg 84%
06:00 +17°C° 0.1 mm 3 mps 747 mmHg 84%
07:00 +18°C° 0.1 mm 3 mps 747 mmHg 84%
08:00 +18°C° 0 mm 3 mps 747 mmHg 86%
09:00 +18°C° 0.2 mm 3 mps 747 mmHg 88%
10:00 +18°C° 0.2 mm 3 mps 747 mmHg 89%
11:00 +18°C° 0.2 mm 3 mps 747 mmHg 90%
12:00 +19°C° 0 mm 3 mps 747 mmHg 87%
13:00 +20°C° 0 mm 3 mps 746 mmHg 84%
14:00 +20°C° 0 mm 3 mps 746 mmHg 81%
15:00 +21°C° 0.3 mm 3 mps 746 mmHg 81%
16:00 +21°C° 0.3 mm 4 mps 746 mmHg 82%
17:00 +22°C° 0.3 mm 4 mps 745 mmHg 82%
18:00 +21°C° 0.1 mm 4 mps 745 mmHg 84%
19:00 +21°C° 0.1 mm 3 mps 745 mmHg 86%
20:00 +20°C° 0.1 mm 3 mps 744 mmHg 88%
21:00 +20°C° 0 mm 3 mps 744 mmHg 90%
22:00 +20°C° 0 mm 3 mps 744 mmHg 91%
23:00 +19°C° 0 mm 4 mps 744 mmHg 93%

Tomorrow, 6 July, Monday

Time Temperature Precipitation Wind Pressure Humidity
00:00 +19°C° 0 mm 4 mps 744 mmHg 93%
01:00 +19°C° 0 mm 4 mps 744 mmHg 93%
02:00 +19°C° 0 mm 4 mps 744 mmHg 93%
03:00 +19°C° 0.2 mm 3 mps 744 mmHg 94%
04:00 +19°C° 0.2 mm 3 mps 744 mmHg 95%
05:00 +19°C° 0.2 mm 3 mps 744 mmHg 96%
06:00 +19°C° 0.2 mm 3 mps 744 mmHg 94%
07:00 +20°C° 0.2 mm 3 mps 744 mmHg 93%
08:00 +21°C° 0.2 mm 4 mps 744 mmHg 91%
09:00 +21°C° 0.4 mm 4 mps 744 mmHg 90%
10:00 +21°C° 0.4 mm 4 mps 744 mmHg 88%
11:00 +21°C° 0.4 mm 4 mps 744 mmHg 87%
12:00 +21°C° 0.2 mm 4 mps 744 mmHg 86%
13:00 +20°C° 0.2 mm 4 mps 744 mmHg 85%
14:00 +20°C° 0.2 mm 3 mps 743 mmHg 84%
15:00 +20°C° 0 mm 3 mps 743 mmHg 79%
16:00 +21°C° 0 mm 3 mps 743 mmHg 74%
17:00 +21°C° 0 mm 3 mps 743 mmHg 70%
18:00 +20°C° 0 mm 3 mps 743 mmHg 74%
19:00 +19°C° 0 mm 2 mps 743 mmHg 79%
20:00 +18°C° 0 mm 2 mps 744 mmHg 83%
21:00 +17°C° 0 mm 2 mps 744 mmHg 87%
22:00 +16°C° 0 mm 2 mps 744 mmHg 91%
23:00 +15°C° 0 mm 2 mps 744 mmHg 95%

Day after tomorrow, 7 July, Tuesday

Time Temperature Precipitation Wind Pressure Humidity
00:00 +14°C° 0 mm 2 mps 745 mmHg 94%
01:00 +13°C° 0 mm 2 mps 745 mmHg 93%
02:00 +12°C° 0 mm 1 mps 745 mmHg 92%
03:00 +12°C° 0 mm 1 mps 745 mmHg 90%
04:00 +12°C° 0 mm 1 mps 745 mmHg 88%
05:00 +12°C° 0 mm 1 mps 746 mmHg 86%
06:00 +14°C° 0 mm 2 mps 746 mmHg 80%
07:00 +15°C° 0 mm 2 mps 746 mmHg 75%
08:00 +17°C° 0 mm 2 mps 746 mmHg 69%
09:00 +18°C° 0 mm 3 mps 746 mmHg 64%
10:00 +19°C° 0 mm 3 mps 747 mmHg 60%
11:00 +20°C° 0 mm 4 mps 747 mmHg 55%
12:00 +21°C° 0 mm 4 mps 746 mmHg 54%
13:00 +21°C° 0 mm 4 mps 746 mmHg 53%
14:00 +22°C° 0 mm 4 mps 746 mmHg 51%
15:00 +21°C° 0 mm 4 mps 746 mmHg 53%
16:00 +21°C° 0 mm 4 mps 746 mmHg 55%
17:00 +20°C° 0 mm 4 mps 747 mmHg 57%
18:00 +19°C° 0 mm 3 mps 747 mmHg 63%
19:00 +18°C° 0 mm 3 mps 747 mmHg 70%
20:00 +16°C° 0 mm 2 mps 747 mmHg 76%
21:00 +15°C° 0 mm 2 mps 747 mmHg 77%
22:00 +15°C° 0 mm 2 mps 748 mmHg 79%
23:00 +14°C° 0 mm 2 mps 748 mmHg 81%

8 July, Wednesday

Time Temperature Precipitation Wind Pressure Humidity
00:00 +13°C° 0 mm 2 mps 748 mmHg 85%
01:00 +10°C° 0 mm 2 mps 748 mmHg 90%
02:00 +9°C° 0 mm 2 mps 748 mmHg 94%
03:00 +9°C° 0 mm 2 mps 748 mmHg 94%
04:00 +9°C° 0 mm 2 mps 748 mmHg 94%
05:00 +9°C° 0 mm 2 mps 749 mmHg 94%
06:00 +12°C° 0 mm 2 mps 749 mmHg 87%
07:00 +14°C° 0 mm 2 mps 748 mmHg 79%
08:00 +16°C° 0 mm 2 mps 748 mmHg 72%
09:00 +17°C° 0 mm 2 mps 748 mmHg 66%
10:00 +19°C° 0 mm 3 mps 749 mmHg 60%
11:00 +20°C° 0 mm 3 mps 749 mmHg 54%
12:00 +20°C° 0 mm 3 mps 748 mmHg 52%
13:00 +21°C° 0 mm 3 mps 748 mmHg 51%
14:00 +22°C° 0 mm 3 mps 748 mmHg 49%
15:00 +21°C° 0.1 mm 4 mps 748 mmHg 52%
16:00 +20°C° 0.1 mm 4 mps 748 mmHg 55%
17:00 +20°C° 0.1 mm 4 mps 748 mmHg 57%
18:00 +18°C° 0.1 mm 3 mps 748 mmHg 64%
19:00 +17°C° 0.1 mm 2 mps 748 mmHg 71%
20:00 +15°C° 0.1 mm 2 mps 748 mmHg 78%
21:00 +14°C° 0 mm 2 mps 749 mmHg 82%
22:00 +14°C° 0 mm 2 mps 749 mmHg 85%
23:00 +13°C° 0 mm 2 mps 749 mmHg 88%

9 July, Thursday

Time Temperature Precipitation Wind Pressure Humidity
00:00 +12°C° 0 mm 2 mps 749 mmHg 90%
01:00 +12°C° 0 mm 2 mps 749 mmHg 92%
02:00 +12°C° 0 mm 2 mps 749 mmHg 93%
03:00 +12°C° 0 mm 2 mps 749 mmHg 93%
04:00 +12°C° 0 mm 2 mps 749 mmHg 94%
05:00 +12°C° 0 mm 2 mps 749 mmHg 94%
06:00 +13°C° 0 mm 2 mps 750 mmHg 89%
07:00 +14°C° 0 mm 2 mps 750 mmHg 83%
08:00 +15°C° 0 mm 2 mps 750 mmHg 78%
09:00 +17°C° 0.1 mm 2 mps 750 mmHg 70%
10:00 +18°C° 0.1 mm 2 mps 750 mmHg 61%
11:00 +19°C° 0.1 mm 2 mps 750 mmHg 52%
12:00 +20°C° 0.1 mm 3 mps 750 mmHg 52%
13:00 +20°C° 0.1 mm 3 mps 750 mmHg 52%
14:00 +21°C° 0.1 mm 3 mps 750 mmHg 52%
15:00 +21°C° 0.1 mm 3 mps 750 mmHg 52%
16:00 +20°C° 0.1 mm 3 mps 750 mmHg 53%
17:00 +20°C° 0.1 mm 3 mps 750 mmHg 54%
18:00 +19°C° 0 mm 3 mps 750 mmHg 62%
19:00 +18°C° 0 mm 2 mps 750 mmHg 70%
20:00 +16°C° 0 mm 2 mps 750 mmHg 77%
21:00 +15°C° 0 mm 2 mps 750 mmHg 81%
22:00 +13°C° 0 mm 2 mps 751 mmHg 85%
23:00 +12°C° 0 mm 2 mps 751 mmHg 89%

10 July, Friday

Time Temperature Precipitation Wind Pressure Humidity
00:00 +12°C° 0 mm 1 mps 751 mmHg 89%
01:00 +11°C° 0 mm 1 mps 752 mmHg 90%
02:00 +11°C° 0 mm 1 mps 752 mmHg 90%
03:00 +11°C° 0 mm 1 mps 752 mmHg 89%
04:00 +11°C° 0 mm 1 mps 752 mmHg 88%
05:00 +10°C° 0 mm 0 mps 752 mmHg 87%
06:00 +12°C° 0 mm 0 mps 752 mmHg 79%
07:00 +16°C° 0 mm 1 mps 753 mmHg 71%
08:00 +19°C° 0 mm 1 mps 753 mmHg 63%
09:00 +20°C° 0 mm 1 mps 753 mmHg 60%
10:00 +20°C° 0 mm 2 mps 753 mmHg 57%
11:00 +21°C° 0 mm 2 mps 753 mmHg 53%
12:00 +21°C° 0 mm 3 mps 753 mmHg 51%
13:00 +22°C° 0 mm 3 mps 753 mmHg 48%
14:00 +22°C° 0 mm 3 mps 753 mmHg 46%
15:00 +22°C° 0 mm 3 mps 753 mmHg 47%
16:00 +22°C° 0 mm 3 mps 753 mmHg 48%
17:00 +22°C° 0 mm 3 mps 753 mmHg 49%
18:00 +20°C° 0 mm 2 mps 753 mmHg 57%
19:00 +19°C° 0 mm 1 mps 753 mmHg 65%
20:00 +18°C° 0 mm 1 mps 753 mmHg 74%
21:00 +16°C° 0 mm 1 mps 753 mmHg 76%
22:00 +15°C° 0 mm 1 mps 753 mmHg 78%
23:00 +14°C° 0 mm 2 mps 753 mmHg 80%
Show more